Theta_e
314 315 315 311 312 320 321 323 322 322 323 327 330 329 331 331 331 325 324 327 324 322 322 323 324 318 316 316 316 313 318 323 325 321 321 319 321 319 321 324 328 329 325 327 334
314 312 313 314 309 317 320 322 323 322 322 323 327 329 330 331 329 323 325 323 322 322 321 323 322 315 316 318 317 317 318 321 322 318 320 320 320 320 326 327 328 330 329 329 333
312 312 312 314 314 312 318 320 323 323 322 322 324 328 330 330 325 325 327 321 321 322 321 323 321 314 318 316 319 319 320 319 321 315 317 319 318 318 323 326 323 327 329 330 332
314 311 312 313 315 311 315 319 321 323 322 322 324 325 329 325 334 326 327 322 320 320 321 319 316 318 319 321 317 323 320 321 321 315 315 318 316 318 321 321 318 321 327 330 331
312 311 311 312 314 314 312 318 318 322 323 323 324 325 324 325 326 323 325 322 320 320 321 319 318 318 323 318 318 320 320 320 320 318 315 313 316 317 317 315 321 325 328 328 330
312 311 312 310 314 314 311 316 318 319 322 322 324 326 322 327 321 321 324 321 321 320 319 320 320 319 323 323 321 321 319 321 319 315 313 315 314 314 314 316 325 327 327 326 328
312 311 312 310 312 313 311 313 317 318 320 322 323 324 321 323 321 321 322 324 323 321 320 320 321 320 318 323 322 325 324 319 320 316 315 314 315 315 313 320 324 326 325 325 326
312 311 311 310 311 313 311 310 315 317 319 321 322 321 322 321 321 321 322 321 321 321 320 320 321 321 321 318 317 324 326 332 324 313 315 315 320 317 313 322 321 324 324 324 325
311 312 312 310 311 313 311 311 313 317 317 319 321 319 321 319 321 321 322 321 321 321 321 320 322 323 321 321 322 317 323 326 328 314 316 316 318 316 313 320 318 320 323 324 324
313 312 311 310 311 312 310 309 314 316 317 318 316 317 315 320 319 320 320 321 321 320 320 321 323 327 324 324 330 322 322 321 326 322 315 316 315 314 315 313 316 315 317 322 324
309 311 310 310 310 312 310 311 311 312 310 312 314 313 313 318 319 320 320 321 320 321 323 321 326 328 327 326 322 319 321 321 320 320 317 316 316 315 314 313 313 312 311 313 322
307 311 310 310 310 311 311 310 309 309 313 308 309 311 313 317 320 319 320 322 322 324 321 323 326 323 324 326 325 323 324 323 321 320 319 320 321 318 315 314 314 313 313 311 311
308 311 310 310 310 311 310 309 309 310 311 310 309 311 314 316 318 319 319 321 323 324 322 325 322 320 322 325 326 326 327 324 323 319 316 318 319 318 316 315 316 313 314 313 312
308 312 310 310 311 310 309 309 309 308 308 311 310 309 311 313 316 317 319 320 322 323 323 323 320 321 323 324 323 326 322 323 325 326 326 318 321 313 318 317 316 315 313 315 313
306 311 310 310 310 310 309 309 308 306 311 306 308 308 309 313 312 316 318 318 321 322 321 322 320 322 324 323 323 325 322 324 326 324 323 323 324 320 319 319 318 318 316 313 315
309 311 310 310 310 309 309 309 308 308 309 310 309 311 313 313 312 316 319 316 316 321 320 320 317 320 321 320 321 319 322 322 320 323 327 322 323 319 318 319 319 318 317 315 314
306 310 310 309 310 309 308 308 310 310 300 310 311 311 312 314 313 314 317 320 321 322 322 321 321 318 318 322 321 322 322 326 326 327 325 314 321 320 315 315 316 316 315 313 312
308 310 309 308 309 309 308 309 310 298 301 308 308 310 310 311 311 313 316 317 317 316 314 320 322 320 317 321 323 322 322 322 324 323 319 316 320 317 315 316 314 312 313 312 311
310 309 307 307 308 309 309 310 305 301 305 310 309 310 311 310 310 311 311 314 314 317 319 317 318 317 317 318 320 323 325 317 316 299 312 315 315 312 311 314 314 313 311 313 313
310 308 308 308 309 308 308 307 303 306 307 308 309 309 310 311 309 310 310 309 311 314 315 317 321 317 317 318 318 321 318 324 318 321 317 315 314 317 314 315 316 314 313 311 310
308 308 308 308 308 308 309 307 304 305 308 308 310 309 308 310 308 311 308 309 308 309 315 318 320 318 318 321 322 321 323 321 320 315 317 317 316 309 313 313 315 314 313 310 309
302 305 308 308 308 307 308 302 306 307 307 309 310 309 308 308 309 309 309 308 307 309 312 315 316 319 322 315 317 320 320 322 325 321 315 313 318 308 309 309 309 308 308 308 306
299 306 308 306 307 307 304 303 306 306 306 307 308 308 309 308 308 309 308 306 307 310 313 312 315 317 318 316 317 321 321 320 321 315 320 321 320 306 303 303 302 303 305 306 304
301 306 299 304 300 304 305 305 304 304 305 304 304 305 308 309 306 306 310 309 307 309 312 314 312 314 313 315 316 321 321 321 321 324 323 320 319 316 310 307 304 303 302 304 303
297 299 298 303 300 300 301 303 304 304 304 304 304 304 306 308 307 305 307 308 307 308 309 312 315 312 313 313 313 318 320 320 322 321 322 320 319 318 315 309 307 304 303 303 303
299 300 297 299 298 303 304 301 304 301 303 303 303 303 303 306 306 305 305 307 308 308 308 310 312 314 313 311 311 312 311 314 321 322 321 320 320 317 313 311 310 306 304 303 302
293 294 297 301 298 299 296 300 302 301 301 302 302 303 304 303 303 303 305 305 306 306 309 311 312 311 313 312 313 314 312 311 312 319 321 321 319 317 315 312 311 312 311 304 303
Wind_Speed
35 32 29 30 30 25 25 24 25 25 22 24 25 23 24 22 18 13 10 9 11 3 1 2 2 4 3 2 3 3 3 1 3 5 3 3 4 2 1 5 1 2 4 3 25
38 36 33 30 30 29 24 24 25 25 25 23 24 25 24 25 20 12 10 15 11 7 3 3 2 3 3 2 2 4 3 7 2 3 3 4 3 7 4 4 3 3 2 8 28
39 37 37 33 31 32 28 25 25 23 24 23 22 25 26 26 6 8 26 13 10 14 5 4 4 3 2 1 2 4 5 3 2 1 2 4 2 3 7 4 6 8 6 13 18
39 37 37 35 33 32 31 27 24 24 22 22 22 22 28 21 12 4 20 16 11 12 10 7 4 3 3 3 2 3 5 3 3 2 1 4 6 3 6 4 2 8 8 16 17
41 39 36 37 35 31 33 29 25 24 23 22 22 21 24 6 6 4 14 19 14 14 11 5 4 3 3 2 3 2 3 3 4 5 3 2 3 3 5 6 3 6 9 13 14
42 40 37 39 35 32 33 29 26 24 24 23 24 26 6 13 7 13 14 20 12 12 9 7 5 1 1 1 4 3 5 4 1 1 2 1 2 2 4 4 4 7 9 9 12
43 41 38 40 36 33 31 31 25 23 23 24 24 26 4 12 7 15 18 28 17 6 5 9 8 5 2 1 3 2 1 4 4 4 3 3 6 6 5 2 5 7 7 7 12
46 42 40 41 39 34 30 30 27 21 23 23 23 15 4 7 8 15 19 21 18 13 13 9 10 4 2 4 3 4 1 2 3 5 3 7 9 5 6 6 9 9 8 8 9
47 44 42 41 39 35 31 27 27 21 21 23 19 5 5 8 13 18 22 20 17 12 11 8 8 3 3 2 1 5 3 4 6 8 3 5 8 6 5 8 10 9 7 7 7
46 46 43 42 41 37 32 29 23 19 20 19 7 3 3 6 10 11 12 25 9 16 6 3 3 2 3 4 9 5 3 3 6 4 3 4 10 7 2 7 10 8 7 8 9
33 48 45 42 43 40 34 31 7 3 3 4 4 3 6 9 14 10 20 12 10 2 5 4 4 7 5 7 2 5 2 5 4 3 4 7 12 9 11 5 8 9 8 8 11
45 50 47 43 44 42 37 12 19 10 9 6 4 4 2 5 6 10 19 8 8 6 8 4 14 16 9 5 2 3 1 3 4 4 4 7 13 9 8 8 10 12 13 12 7
38 49 48 46 45 40 35 20 17 31 6 3 1 4 3 2 5 13 14 6 8 8 11 7 2 10 6 5 6 5 5 3 4 5 3 5 11 10 7 8 11 9 11 10 13
45 51 50 48 40 37 30 26 27 17 4 5 5 4 2 3 2 8 19 5 3 13 10 9 5 13 10 14 15 16 8 9 6 3 4 1 9 7 5 10 10 10 11 16 13
33 53 54 56 37 26 41 38 32 4 7 7 5 7 7 6 5 5 7 2 7 6 8 7 8 13 11 8 12 4 7 6 2 3 3 5 5 6 2 6 9 13 12 13 17
41 54 56 44 31 35 40 43 8 5 7 6 7 11 9 5 2 4 7 1 2 4 1 4 1 11 7 7 13 7 5 3 3 0 9 11 8 6 8 8 8 16 12 12 13
43 58 59 43 21 51 45 16 5 7 3 8 8 11 18 8 5 6 17 18 12 10 9 5 6 2 5 6 4 6 8 2 3 5 9 2 9 19 6 8 13 13 13 12 10
64 62 49 31 48 51 32 13 7 4 6 3 11 15 14 9 8 5 11 15 20 6 3 10 7 18 9 7 4 17 9 4 7 5 4 3 9 7 12 18 11 10 10 7 8
60 49 38 44 56 48 16 14 8 7 8 11 17 17 9 8 7 6 8 11 13 16 10 6 10 4 5 7 13 6 11 1 3 2 2 5 9 9 10 11 13 16 11 15 13
45 25 23 52 50 35 14 11 5 4 8 15 9 11 10 19 7 17 12 9 10 21 5 3 3 6 7 4 8 13 8 4 2 4 5 6 6 12 1 10 15 13 15 14 9
19 9 30 48 42 13 15 5 5 1 2 5 7 7 15 14 11 17 10 6 20 11 15 3 2 2 9 14 18 6 10 5 5 4 4 5 8 8 15 14 18 16 15 9 8
4 4 37 48 10 6 10 9 5 5 5 4 4 4 11 16 13 12 13 16 8 12 15 11 2 4 10 4 9 16 15 14 5 16 5 1 15 4 8 7 5 10 8 7 8
4 6 29 34 5 7 6 5 4 4 4 4 3 1 2 10 7 10 6 7 7 13 10 12 8 8 3 2 2 14 20 18 21 2 15 11 18 4 2 5 8 11 10 8 6
4 6 4 4 2 9 10 6 5 4 2 5 6 4 4 2 4 7 5 2 7 7 10 10 5 9 17 4 4 10 16 21 19 12 23 18 31 21 6 4 9 10 8 8 7
3 3 2 7 3 6 5 7 10 5 2 3 3 5 6 4 2 2 4 3 5 6 4 4 6 12 17 12 10 9 13 24 25 28 18 33 27 39 18 8 9 6 7 5 8
4 5 3 5 10 12 4 9 14 5 7 4 6 8 6 7 8 7 5 3 3 4 1 2 8 4 16 19 20 25 23 20 23 29 24 32 29 38 7 11 14 12 9 10 10
4 5 5 6 5 6 4 5 5 9 6 4 8 6 6 8 4 5 5 7 7 8 10 3 3 6 23 11 12 16 29 31 25 22 21 29 41 13 17 13 14 17 18 13 12
Wind_Direction
222 225 228 226 224 221 219 216 214 214 212 217 211 207 205 196 190 184 208 212 213 248 117 154 91 21 334 75 61 117 63 202 231 160 234 168 169 109 76 114 236 209 161 265 169
226 222 224 226 224 220 217 215 215 211 210 212 219 209 206 195 187 210 208 198 199 185 134 109 86 56 33 13 36 93 131 216 215 211 217 197 172 159 146 131 252 280 141 155 165
229 227 219 224 220 218 216 214 212 208 210 209 213 214 202 189 146 228 211 196 195 197 150 104 107 89 111 332 178 150 187 241 298 282 211 171 166 171 135 234 209 207 173 158 166
226 224 218 217 217 215 214 213 208 202 205 205 208 211 196 167 203 221 215 201 178 164 144 111 63 99 141 192 207 157 240 255 297 36 251 173 131 197 192 217 274 216 162 165 174
221 223 220 217 214 211 210 209 207 201 201 199 198 191 173 219 206 62 200 196 176 155 138 121 102 111 171 217 132 205 239 228 258 288 280 160 214 199 241 244 28 137 154 178 181
219 220 218 215 210 207 207 205 204 200 195 198 189 190 173 213 154 169 195 192 180 139 127 106 102 137 150 235 188 223 245 272 266 307 289 226 281 128 279 125 127 165 193 189 192
215 217 214 212 208 206 204 200 198 196 195 198 192 179 183 211 191 186 173 191 201 184 98 67 79 98 116 230 224 250 305 326 237 204 223 156 285 216 234 167 188 212 214 218 214
211 213 213 209 204 201 201 198 195 191 191 193 188 171 186 188 177 159 165 145 157 151 120 98 52 83 75 311 20 152 155 237 276 149 239 148 259 240 214 167 229 220 222 217 224
212 207 208 207 200 192 195 189 187 185 186 191 178 213 161 174 159 154 166 145 134 124 102 100 69 67 16 243 69 23 202 200 294 204 150 182 258 251 174 195 234 226 223 231 240
210 206 203 203 197 187 187 181 164 162 169 167 121 119 235 199 155 166 156 142 108 107 76 76 100 218 141 211 211 190 196 243 210 241 200 227 259 283 242 196 242 260 242 228 237
232 203 200 199 194 184 174 154 117 58 134 193 149 123 124 136 149 165 149 120 126 153 152 173 164 211 205 212 62 126 212 203 242 263 192 237 254 247 266 228 253 259 258 241 230
236 195 194 194 190 179 161 171 173 163 139 45 121 79 121 137 154 183 162 160 162 167 120 137 216 194 140 108 301 123 211 273 290 265 196 274 269 245 247 245 227 229 246 245 239
215 190 189 186 184 164 170 176 153 137 122 77 108 108 147 124 162 182 171 161 170 164 179 176 152 152 182 178 243 268 230 235 243 330 283 315 271 259 241 240 245 229 233 240 232
208 186 182 175 169 165 174 171 159 148 102 174 181 221 110 111 272 164 181 140 186 204 185 231 179 167 181 214 195 224 189 224 243 312 250 124 285 255 220 237 256 249 226 236 235
203 177 175 173 164 172 169 165 158 104 172 163 162 163 139 172 142 203 169 91 170 158 165 204 169 172 188 179 183 232 160 190 198 191 322 243 285 270 254 243 249 251 239 224 232
203 175 172 167 165 162 163 160 132 108 216 163 141 161 148 175 112 110 171 77 152 148 192 204 183 171 181 157 177 134 96 84 79 224 254 236 210 207 220 202 238 241 237 228 228
203 177 169 163 162 161 158 139 147 187 218 153 163 164 176 170 156 149 187 194 189 189 192 199 192 295 140 132 119 185 145 168 210 194 242 261 195 247 272 243 224 235 237 235 219
183 171 163 160 157 156 152 153 190 167 186 152 165 155 182 149 208 158 165 201 217 211 147 208 203 201 190 201 187 198 187 174 199 197 245 137 234 249 225 233 243 242 249 257 243
165 161 153 154 157 156 155 177 176 176 155 140 145 159 171 191 163 150 194 209 207 205 195 181 232 129 183 171 165 164 215 163 77 90 39 220 280 285 237 251 248 257 253 253 245
157 143 150 154 155 157 164 175 114 134 119 132 147 185 169 179 149 187 174 211 210 203 215 200 279 180 181 139 221 190 127 177 155 187 249 250 258 238 211 243 254 254 252 250 249
136 133 150 151 150 160 177 143 124 172 127 134 138 146 186 181 184 190 207 233 200 184 186 99 229 359 137 203 198 177 191 197 155 183 223 259 257 211 215 221 236 247 257 280 249
100 115 146 147 153 169 166 136 118 141 64 81 87 98 164 175 188 188 217 198 188 150 198 180 177 210 219 13 206 219 219 198 196 217 243 342 267 160 224 265 270 283 291 263 233
99 106 143 151 150 148 125 103 118 131 133 123 109 95 228 164 171 197 149 204 139 174 176 173 221 249 260 325 198 216 217 223 227 347 229 230 258 79 351 314 276 271 270 272 264
104 127 46 125 12 135 137 146 107 51 138 108 117 89 103 146 67 201 161 88 165 180 191 162 192 216 229 235 147 214 217 222 219 233 242 234 258 244 294 308 301 285 278 278 235
35 73 72 141 146 114 92 138 143 143 202 127 52 139 133 114 105 319 169 73 51 92 45 204 248 234 251 264 270 281 243 221 223 233 231 246 247 264 243 249 258 282 286 287 261
113 122 69 81 115 125 136 177 160 141 143 191 124 161 169 149 195 178 136 109 190 78 159 246 239 204 257 257 254 265 263 255 245 235 236 250 256 256 243 229 254 254 240 238 228
58 65 95 109 91 100 162 152 153 119 18 109 127 142 185 223 156 131 111 178 197 175 171 201 227 206 254 251 257 251 238 238 246 249 248 244 246 274 257 227 227 246 256 237 228